Hourly Weather Rudnya-Hats'kivka

Today, 10 April, Saturday

Time Temperature Precipitation Wind Pressure Humidity
00:00 +1°C° 0 mm 3 mps 751 mmHg 66%
01:00 +1°C° 0 mm 3 mps 751 mmHg 67%
02:00 0°C° 0 mm 3 mps 751 mmHg 68%
03:00 0°C° 0 mm 3 mps 751 mmHg 69%
04:00 0°C° 0 mm 3 mps 751 mmHg 70%
05:00 -1°C° 0 mm 3 mps 750 mmHg 71%
06:00 0°C° 0 mm 4 mps 751 mmHg 66%
07:00 +3°C° 0 mm 4 mps 751 mmHg 60%
08:00 +3°C° 0 mm 5 mps 751 mmHg 55%
09:00 +5°C° 0 mm 6 mps 751 mmHg 50%
10:00 +8°C° 0 mm 6 mps 750 mmHg 46%
11:00 +9°C° 0 mm 7 mps 750 mmHg 41%
12:00 +10°C° 0 mm 6 mps 750 mmHg 40%
13:00 +10°C° 0 mm 6 mps 750 mmHg 38%
14:00 +11°C° 0 mm 6 mps 750 mmHg 37%
15:00 +12°C° 0 mm 5 mps 750 mmHg 39%
16:00 +12°C° 0 mm 5 mps 750 mmHg 41%
17:00 +12°C° 0 mm 4 mps 749 mmHg 44%
18:00 +10°C° 0 mm 4 mps 750 mmHg 49%
19:00 +7°C° 0 mm 4 mps 750 mmHg 54%
20:00 +7°C° 0 mm 3 mps 750 mmHg 60%
21:00 +5°C° 0 mm 3 mps 751 mmHg 62%
22:00 +4°C° 0 mm 3 mps 751 mmHg 63%
23:00 +4°C° 0 mm 3 mps 751 mmHg 65%

Tomorrow, 11 April, Sunday

Time Temperature Precipitation Wind Pressure Humidity
00:00 +3°C° 0 mm 3 mps 751 mmHg 66%
01:00 +3°C° 0 mm 3 mps 751 mmHg 67%
02:00 +3°C° 0 mm 3 mps 751 mmHg 68%
03:00 +2°C° 0 mm 3 mps 752 mmHg 68%
04:00 +2°C° 0 mm 3 mps 752 mmHg 68%
05:00 +2°C° 0 mm 3 mps 752 mmHg 69%
06:00 +3°C° 0 mm 3 mps 752 mmHg 64%
07:00 +5°C° 0 mm 3 mps 753 mmHg 60%
08:00 +7°C° 0 mm 3 mps 753 mmHg 55%
09:00 +9°C° 0 mm 3 mps 753 mmHg 50%
10:00 +11°C° 0 mm 4 mps 753 mmHg 45%
11:00 +12°C° 0 mm 4 mps 753 mmHg 40%
12:00 +13°C° 0 mm 4 mps 753 mmHg 38%
13:00 +14°C° 0 mm 3 mps 753 mmHg 36%
14:00 +14°C° 0 mm 3 mps 752 mmHg 34%
15:00 +14°C° 0 mm 3 mps 752 mmHg 36%
16:00 +14°C° 0 mm 3 mps 752 mmHg 38%
17:00 +14°C° 0 mm 3 mps 752 mmHg 40%
18:00 +12°C° 0 mm 3 mps 752 mmHg 45%
19:00 +10°C° 0 mm 3 mps 752 mmHg 50%
20:00 +8°C° 0 mm 3 mps 753 mmHg 55%
21:00 +7°C° 0 mm 3 mps 753 mmHg 57%
22:00 +7°C° 0 mm 3 mps 753 mmHg 59%
23:00 +5°C° 0 mm 3 mps 753 mmHg 62%

Day after tomorrow, 12 April, Monday

Time Temperature Precipitation Wind Pressure Humidity
00:00 +4°C° 0 mm 3 mps 752 mmHg 63%
01:00 +4°C° 0 mm 3 mps 752 mmHg 63%
02:00 +5°C° 0 mm 2 mps 752 mmHg 64%
03:00 +4°C° 0 mm 2 mps 752 mmHg 65%
04:00 +4°C° 0 mm 2 mps 752 mmHg 66%
05:00 +4°C° 0 mm 2 mps 752 mmHg 67%
06:00 +4°C° 0 mm 3 mps 751 mmHg 64%
07:00 +7°C° 0 mm 3 mps 751 mmHg 61%
08:00 +8°C° 0 mm 3 mps 751 mmHg 58%
09:00 +10°C° 0 mm 3 mps 751 mmHg 52%
10:00 +11°C° 0 mm 3 mps 750 mmHg 47%
11:00 +13°C° 0 mm 3 mps 750 mmHg 41%
12:00 +14°C° 0 mm 3 mps 750 mmHg 39%
13:00 +16°C° 0 mm 2 mps 749 mmHg 37%
14:00 +16°C° 0 mm 2 mps 749 mmHg 35%
15:00 +16°C° 0 mm 2 mps 748 mmHg 37%
16:00 +16°C° 0 mm 2 mps 748 mmHg 38%
17:00 +16°C° 0 mm 2 mps 748 mmHg 40%
18:00 +13°C° 0 mm 3 mps 748 mmHg 50%
19:00 +11°C° 0 mm 3 mps 748 mmHg 60%
20:00 +8°C° 0 mm 3 mps 748 mmHg 69%
21:00 +8°C° 0 mm 3 mps 748 mmHg 75%
22:00 +7°C° 0 mm 2 mps 748 mmHg 81%
23:00 +6°C° 0 mm 2 mps 748 mmHg 87%

13 April, Tuesday

Time Temperature Precipitation Wind Pressure Humidity
00:00 +6°C° 0 mm 2 mps 748 mmHg 86%
01:00 +7°C° 0 mm 1 mps 748 mmHg 86%
02:00 +7°C° 0 mm 1 mps 747 mmHg 85%
03:00 +7°C° 0 mm 1 mps 747 mmHg 84%
04:00 +7°C° 0 mm 1 mps 747 mmHg 84%
05:00 +6°C° 0 mm 0 mps 747 mmHg 83%
06:00 +8°C° 0 mm 1 mps 747 mmHg 77%
07:00 +10°C° 0 mm 1 mps 747 mmHg 71%
08:00 +11°C° 0 mm 1 mps 747 mmHg 66%
09:00 +13°C° 0 mm 1 mps 747 mmHg 61%
10:00 +14°C° 0 mm 2 mps 747 mmHg 56%
11:00 +15°C° 0 mm 2 mps 746 mmHg 52%
12:00 +16°C° 0 mm 2 mps 746 mmHg 52%
13:00 +17°C° 0 mm 2 mps 746 mmHg 52%
14:00 +18°C° 0 mm 2 mps 746 mmHg 51%
15:00 +17°C° 0 mm 3 mps 745 mmHg 56%
16:00 +17°C° 0 mm 3 mps 745 mmHg 60%
17:00 +15°C° 0 mm 4 mps 745 mmHg 64%
18:00 +14°C° 0 mm 3 mps 745 mmHg 71%
19:00 +12°C° 0 mm 3 mps 745 mmHg 78%
20:00 +11°C° 0 mm 3 mps 745 mmHg 85%
21:00 +10°C° 0 mm 3 mps 745 mmHg 86%
22:00 +10°C° 0 mm 3 mps 744 mmHg 87%
23:00 +10°C° 0 mm 3 mps 744 mmHg 88%

14 April, Wednesday

Time Temperature Precipitation Wind Pressure Humidity
00:00 +10°C° 0 mm 3 mps 744 mmHg 89%
01:00 +10°C° 0 mm 3 mps 744 mmHg 89%
02:00 +9°C° 0 mm 3 mps 743 mmHg 90%
03:00 +9°C° 0 mm 3 mps 743 mmHg 91%
04:00 +9°C° 0 mm 3 mps 743 mmHg 91%
05:00 +9°C° 0 mm 3 mps 743 mmHg 91%
06:00 +9°C° 0.1 mm 3 mps 742 mmHg 89%
07:00 +8°C° 0.1 mm 4 mps 742 mmHg 87%
08:00 +10°C° 0.1 mm 4 mps 742 mmHg 85%
09:00 +10°C° 0.1 mm 4 mps 742 mmHg 81%
10:00 +10°C° 0.1 mm 4 mps 742 mmHg 78%
11:00 +10°C° 0.1 mm 4 mps 742 mmHg 74%
12:00 +11°C° 0 mm 4 mps 742 mmHg 73%
13:00 +11°C° 0 mm 4 mps 741 mmHg 73%
14:00 +11°C° 0 mm 4 mps 741 mmHg 72%
15:00 +11°C° 0 mm 4 mps 741 mmHg 72%
16:00 +11°C° 0 mm 4 mps 741 mmHg 72%
17:00 +11°C° 0 mm 4 mps 741 mmHg 72%
18:00 +10°C° 0 mm 4 mps 741 mmHg 75%
19:00 +10°C° 0 mm 4 mps 741 mmHg 77%
20:00 +9°C° 0 mm 3 mps 741 mmHg 80%
21:00 +9°C° 0 mm 3 mps 741 mmHg 82%
22:00 +7°C° 0 mm 4 mps 740 mmHg 84%
23:00 +7°C° 0 mm 4 mps 740 mmHg 85%

15 April, Thursday

Time Temperature Precipitation Wind Pressure Humidity
00:00 +7°C° 0.1 mm 4 mps 740 mmHg 87%
01:00 +8°C° 0.1 mm 3 mps 740 mmHg 89%
02:00 +8°C° 0.1 mm 3 mps 739 mmHg 91%
03:00 +8°C° 0.2 mm 3 mps 739 mmHg 92%
04:00 +7°C° 0.2 mm 4 mps 739 mmHg 93%
05:00 +7°C° 0.2 mm 4 mps 738 mmHg 94%
06:00 +7°C° 0.2 mm 4 mps 738 mmHg 95%
07:00 +7°C° 0.2 mm 4 mps 738 mmHg 95%
08:00 +8°C° 0.2 mm 3 mps 738 mmHg 95%
09:00 +8°C° 0.2 mm 4 mps 738 mmHg 93%
10:00 +8°C° 0.2 mm 4 mps 738 mmHg 92%
11:00 +8°C° 0.2 mm 4 mps 738 mmHg 90%
12:00 +8°C° 0.9 mm 4 mps 738 mmHg 90%
13:00 +7°C° 0.9 mm 4 mps 738 mmHg 91%
14:00 +6°C° 0.9 mm 4 mps 738 mmHg 91%
15:00 +6°C° 0.1 mm 4 mps 738 mmHg 88%
16:00 +6°C° 0.1 mm 4 mps 738 mmHg 84%
17:00 +7°C° 0.1 mm 3 mps 738 mmHg 80%
18:00 +7°C° 0 mm 3 mps 738 mmHg 80%
19:00 +5°C° 0 mm 3 mps 738 mmHg 81%
20:00 +4°C° 0 mm 3 mps 738 mmHg 82%
21:00 +4°C° 0 mm 3 mps 738 mmHg 81%
22:00 +4°C° 0 mm 3 mps 738 mmHg 80%
23:00 +4°C° 0 mm 2 mps 738 mmHg 80%
Show more